Ashtabula, OH

9:58 AM EDT on May 27, 2017 (GMT -0400)
Ashtabula County

Weather History for KHZY - May, 2013

Change the Weather History Date:

Tuesday, May 14, 2013

  Actual Average (KGKJ) Record (KGKJ)
Temperature  
Mean Temperature 42 °F -  
Max Temperature 53 °F 67 °F 87 °F (1991)
Min Temperature 30 °F 42 °F 29 °F (1951)
Degree Days  
Heating Degree Days 24    
Moisture  
Dew Point 31 °F    
Average Humidity 58    
Maximum Humidity 85    
Minimum Humidity 46    
Precipitation  
Precipitation 0.00 in - - ()
Sea Level Pressure  
Sea Level Pressure 30.06 in    
Wind  
Wind Speed 8 mph (SSE)    
Max Wind Speed 15 mph    
Max Gust Speed 22 mph    
Visibility 10 miles    
Events      
Averages and records for this station are not official NWS values.
T = Trace of Precipitation, MM = Missing Value Source: NWS Daily Summary

Daily Weather History Graph

Daily Weather History Graph

Search for Another Location

Airport or City:

Trip Planner

Search our weather history database for the weather conditions in past years. The results will help you decide how hot, cold, wet, or windy it might be!

Date:

Astronomy

May. 14, 2013 Rise Set
Actual Time 6:03 AM EDT 8:35 PM EDT
Civil Twilight 5:32 AM EDT 9:07 PM EDT
Nautical Twilight 4:52 AM EDT 9:46 PM EDT
Astronomical Twilight 4:08 AM EDT 10:31 PM EDT
Moon 9:42 AM EDT (5/14) No Moon Set
Length of Visible Light 15h 34m
Length of Day
14h 31m
Waxing Crescent, 19% of the Moon is Illuminated
May 14
Waxing Crescent
May 18
First Quarter
May 25
Full
May 31
Last Quarter
Jun 8
New

Hourly Weather History & Observations

Time (EDT) Temp. Windchill Dew Point Humidity Pressure Visibility Wind Dir Wind Speed Gust Speed Precip Events Conditions
12:53 AM 30.9 °F 27.5 °F 27.0 °F 85% 30.19 in 9.0 mi SE 3.5 mph - N/A   Clear
1:53 AM 33.1 °F 28.7 °F 27.0 °F 78% 30.18 in 10.0 mi South 4.6 mph - N/A   Clear
2:53 AM 34.0 °F 28.8 °F 28.0 °F 79% 30.17 in 10.0 mi South 5.8 mph - N/A   Clear
3:53 AM 34.0 °F 28.0 °F 28.0 °F 79% 30.17 in 10.0 mi SSE 6.9 mph - N/A   Clear
4:53 AM 35.1 °F 29.3 °F 27.0 °F 72% 30.16 in 10.0 mi South 6.9 mph - N/A   Clear
5:53 AM 36.0 °F 29.6 °F 27.0 °F 70% 30.16 in 10.0 mi South 8.1 mph - N/A   Partly Cloudy
6:53 AM 36.0 °F 30.3 °F 27.0 °F 70% 30.17 in 10.0 mi SSE 6.9 mph - N/A   Clear
7:53 AM 41.0 °F 37.1 °F 28.0 °F 60% 30.17 in 10.0 mi South 5.8 mph - N/A   Scattered Clouds
8:53 AM 45.0 °F 40.1 °F 27.0 °F 49% 30.17 in 10.0 mi South 9.2 mph - N/A   Overcast
9:53 AM 46.0 °F 40.6 °F 26.1 °F 46% 30.14 in 10.0 mi South 11.5 mph - N/A   Overcast
10:53 AM 46.9 °F - 28.9 °F 50% 30.10 in 10.0 mi South 9.2 mph - N/A   Overcast
11:53 AM 46.9 °F - 30.0 °F 52% 30.11 in 10.0 mi SSE 9.2 mph - 0.00 in   Overcast
12:53 PM 48.9 °F - 30.9 °F 50% 30.09 in 10.0 mi SSE 8.1 mph - N/A   Overcast
1:53 PM 50.0 °F - 32.0 °F 50% 30.07 in 10.0 mi SE 9.2 mph - N/A   Overcast
2:53 PM 52.0 °F - 32.0 °F 47% 30.04 in 10.0 mi SE 11.5 mph - N/A   Overcast
3:53 PM 51.1 °F - 34.0 °F 52% 29.99 in 10.0 mi SE 13.8 mph 21.9 mph 0.00 in   Overcast
4:53 PM 53.1 °F - 35.1 °F 50% 29.95 in 10.0 mi SE 13.8 mph - 0.00 in   Mostly Cloudy
5:53 PM 53.1 °F - 35.1 °F 50% 29.94 in 10.0 mi SSE 10.4 mph - N/A   Overcast
6:53 PM 53.1 °F - 35.1 °F 50% 29.95 in 10.0 mi SSE 15.0 mph 19.6 mph N/A   Overcast
7:53 PM 52.0 °F - 35.1 °F 53% 29.94 in 10.0 mi SE 11.5 mph 18.4 mph N/A   Overcast
8:53 PM 51.1 °F - 35.1 °F 54% 29.93 in 10.0 mi SE 11.5 mph 20.7 mph N/A   Overcast
9:53 PM 51.1 °F - 35.1 °F 54% 29.91 in 10.0 mi SE 15.0 mph 21.9 mph N/A   Overcast
10:53 PM 53.1 °F - 35.1 °F 50% 29.89 in 10.0 mi SSE 10.4 mph - N/A   Partly Cloudy
11:53 PM 52.0 °F - 35.1 °F 53% 29.87 in 10.0 mi SSE 10.4 mph - N/A   Partly Cloudy